Lumberton, NC

1:06 AM EDT on April 25, 2018 (GMT -0400)
Lumberton Municipal

Weather History for KLBT - September, 2012

Change the Weather History Date:

Thursday, September 6, 2012

  Actual Average Record
Temperature  
Mean Temperature 82 °F 76 °F  
Max Temperature 91 °F 86 °F 92 °F (2010)
Min Temperature 73 °F 65 °F 61 °F (2016)
Degree Days  
Heating Degree Days 0 0  
Month to date heating degree days 0 0  
Since 1 July heating degree days 0 0  
Cooling Degree Days 17 11  
Month to date cooling degree days 105 67  
Year to date cooling degree days 1829 1639  
Growing Degree Days 32 (Base 50)    
Moisture  
Dew Point 73 °F    
Average Humidity 78    
Maximum Humidity 100    
Minimum Humidity 56    
Precipitation  
Precipitation 0.02 in 0.17 in 3.20 in (2008)
Month to date precipitation 0.02 1.06  
Year to date precipitation 36.16 31.45  
Sea Level Pressure  
Sea Level Pressure 29.92 in    
Wind  
Wind Speed 6 mph (SW)    
Max Wind Speed 16 mph    
Max Gust Speed 21 mph    
Visibility 9 miles    
Events Rain , Thunderstorm    
T = Trace of Precipitation, MM = Missing Value Source: NWS Daily Summary

Daily Weather History Graph

Daily Weather History Graph

Search for Another Location

Airport or City:

Astronomy

Sep. 06, 2012 Rise Set
Actual Time 6:53 AM EDT 7:35 PM EDT
Civil Twilight 6:27 AM EDT 8:00 PM EDT
Nautical Twilight 5:57 AM EDT 8:30 PM EDT
Astronomical Twilight 5:26 AM EDT 9:01 PM EDT
Moon 11:01 PM EDT (9/6) 12:34 PM EDT (9/6)
Length of Visible Light 13h 32m
Length of Day
12h 41m
Waning Gibbous, 67% of the Moon is Illuminated
Sep 6
Waning Gibbous
Sep 8
Last Quarter
Sep 15
New
Sep 22
First Quarter
Sep 29
Full

Hourly Weather History & Observations

Time (EDT) Temp. Heat Index Dew Point Humidity Pressure Visibility Wind Dir Wind Speed Gust Speed Precip Events Conditions
12:54 AM 75.0 °F - 73.0 °F 94% 29.93 in 10.0 mi South 4.6 mph - N/A   Clear
1:54 AM 75.0 °F - 73.0 °F 94% 29.94 in 10.0 mi SSW 4.6 mph - N/A   Clear
3:54 AM 75.0 °F - 73.9 °F 96% 29.93 in 9.0 mi South 3.5 mph - N/A   Scattered Clouds
4:54 AM 75.0 °F - 73.9 °F 96% 29.91 in 7.0 mi Calm Calm - N/A   Overcast
5:54 AM 75.0 °F - 73.9 °F 96% 29.92 in 6.0 mi Calm Calm - N/A   Overcast
6:08 AM 75.2 °F - 73.4 °F 94% 29.92 in 6.0 mi Calm Calm - N/A   Overcast
6:29 AM 75.2 °F - 75.2 °F 100% 29.92 in 6.0 mi South 3.5 mph - N/A   Overcast
6:54 AM 75.9 °F - 75.0 °F 97% 29.93 in 6.0 mi South 3.5 mph - N/A   Overcast
7:54 AM 77.0 °F - 75.0 °F 94% 29.94 in 6.0 mi SSW 4.6 mph - N/A   Overcast
8:54 AM 79.0 °F - 73.9 °F 84% 29.95 in 10.0 mi SSW 4.6 mph - N/A   Mostly Cloudy
9:54 AM 80.1 °F 84.5 °F 73.9 °F 81% 29.97 in 10.0 mi SW 5.8 mph - N/A   Overcast
10:54 AM 82.9 °F 88.8 °F 73.0 °F 72% 29.97 in 10.0 mi WSW 10.4 mph - N/A   Mostly Cloudy
11:54 AM 86.0 °F 92.2 °F 72.0 °F 63% 29.96 in 10.0 mi SW 9.2 mph - N/A   Mostly Cloudy
12:54 PM 87.1 °F 93.6 °F 72.0 °F 61% 29.94 in 10.0 mi WSW 13.8 mph - N/A   Partly Cloudy
1:54 PM 90.0 °F 96.9 °F 72.0 °F 55% 29.92 in 10.0 mi WSW 10.4 mph - N/A   Clear
2:54 PM 90.0 °F 96.4 °F 71.1 °F 54% 29.91 in 10.0 mi WSW 11.5 mph - N/A   Partly Cloudy
3:54 PM 88.0 °F 94.7 °F 72.0 °F 59% 29.88 in 10.0 mi WSW 11.5 mph - N/A   Mostly Cloudy
4:54 PM 89.1 °F 96.0 °F 72.0 °F 57% 29.87 in 10.0 mi SW 9.2 mph - N/A   Scattered Clouds
5:54 PM 84.9 °F 90.7 °F 72.0 °F 65% 29.88 in 10.0 mi WSW 6.9 mph - N/A   Clear
6:54 PM 82.0 °F 87.4 °F 73.0 °F 74% 29.89 in 10.0 mi Calm Calm - N/A   Clear
7:54 PM 80.1 °F 84.5 °F 73.9 °F 81% 29.89 in 10.0 mi Calm Calm - N/A   Clear
8:54 PM 79.0 °F - 72.0 °F 79% 29.93 in 10.0 mi North 13.8 mph - N/A Thunderstorm Overcast
9:25 PM 75.2 °F - 71.6 °F 89% 29.94 in 9.0 mi North 6.9 mph - 0.00 in Rain , Thunderstorm Light Thunderstorms and Rain
9:54 PM 73.9 °F - 73.0 °F 97% 29.94 in 8.0 mi ESE 3.5 mph - 0.02 in Rain , Thunderstorm Light Rain
10:41 PM 73.4 °F - 73.4 °F 100% 29.93 in 10.0 mi South 4.6 mph - 0.00 in   Partly Cloudy
10:54 PM 73.9 °F - 72.0 °F 93% 29.93 in 10.0 mi SSW 4.6 mph - 0.00 in   Partly Cloudy
11:54 PM 73.9 °F - 72.0 °F 93% 29.93 in 10.0 mi Calm Calm - N/A   Clear